Other Surface Observations
Issued by NWS

Home | Current Version | Previous Version | Text Only | Print | Product List | Glossary On
Versions: 1 2 3 4 5 6 7 8 9 10 11 12 13 14 15 16 17 18 19 20 21 22 23 24 25 26 27 28 29 30 31 32 33 34 35 36 37 38 39 40 41 42 43 44 45 46 47 48 49 50
000
SXUS52 KTAE 300905
OSOTAE
OSOTAE
North Florida/South Alabama/Southwest Georgia Weather Roundup
National Weather Service Tallahassee Florida
400 AM EST FRI JAN 30 2015

Note: "fair" indicates few or no clouds below 12,000 feet with no
significant weather and/or obstructions to visibility.

!FLZ017-115-028-034-025-301000
...North Florida...

CITY           SKY/WX    TMP DP  RH WIND       PRES   REMARKS
TALLAHASSEE    MOCLDY    45  39  79 CALM      30.15F
APALACHICOLA   PTCLDY    62  56  80 W8        30.16F
PERRY          CLEAR     49  49 100 SW3       30.16F FOG
CROSS CITY       N/A     40  38  93 CALM      30.17F
JACKSONVILLE   PTCLDY    44  41  89 SW3       30.14F
$$

!FLZ112-006-005-002-011-301000
...Florida Panhandle...

CITY           SKY/WX    TMP DP  RH WIND       PRES   REMARKS
MARIANNA       PTCLDY    52  52 100 W3        30.16R
BONIFAY        FAIR      49  48  97 CALM      30.17S
PANAMA CITY NW CLOUDY    63  59  87 W10       30.15S
TYNDALL AFB    CLOUDY    63  61  91 W7        30.16F
TYND DRONE APT PTSUNNY   63  61  94 SW3       30.14F
DE FUNIAK SPR  FAIR      56  55  96 NW7       30.18R
EGLIN AFB      PTCLDY    60  55  85 NW9       30.17S
DESTIN         MOCLDY    61  57  87 NW8       30.18R
HURLBURT       MOCLDY    60  54  80 NW10      30.18R
CRESTVIEW      PTCLDY    56  54  93 NW9       30.21R
PENSACOLA      PTCLDY    58  53  84 N16       30.20R
$$

!ALZ063-066-301000
...South Alabama...

CITY           SKY/WX    TMP DP  RH WIND       PRES   REMARKS
DOTHAN         CLEAR     53  52  96 NW8       30.19R
OZARK CAIRNS   CLEAR     53  51  93 NW9       30.17R
FT RUCKER HELI CLEAR     55  52  89 NW7       30.16S
RUCKER HELI 3  FAIR      55  52  91 NW10G16   30.19R
RUCKER HELI 2  FAIR      53  52  96 NW8       30.16S
FLORALA APT    CLEAR     56  52  86 VRB6      30.21R
ANDALUSIA      CLEAR     58  48  69 N10       30.20R
TROY           PTCLDY    52  41  66 N18G28    30.22R
EUFALA         FAIR      57  48  72 NW8       30.15R
MOBILE         PTCLDY    54  48  80 N14       30.25R
$$

!GAZ120>161-301000
...Southwest and South Central Georgia...

CITY           SKY/WX    TMP DP  RH WIND       PRES   REMARKS
THOMASVILLE    CLOUDY    55  52  88 SW6       30.14F
BAINBRIDGE     MOCLDY    55  52  88 W6        30.15S
MOODY AFB      CLOUDY    52  48  87 SW8       30.12F
VALDOSTA       MOCLDY    51  49  92 CALM      30.14F
MOULTRIE       CLOUDY    52  50  93 SW3       30.14F
BLAKELY        CLEAR     54  52  94 W3        30.16R
ALBANY         MOCLDY    52  48  86 SW3       30.15F
TIFTON         CLOUDY    52  45  76 W6        30.11F
FITZGERALD     CLOUDY    55  46  72 W5        30.13S
CORDELE        FAIR      54  49  84 SW8       30.12S
AMERICUS       PTSUNNY   52  52 100 W8        30.13S
HOMERVILLE     FAIR      52  50  93 W6        30.14F
$$

!GMZ750-755-770-775-301000
...Coastal and Buoy Obs...

STATION/POSITION TIME  TEMP    WIND        PRES    VSBY  WAVE
                       AIR SEA DIR/SP/G                  HT/PER
                 (UTC) (F)     (DEG/KT/KT) (MB)    (MI)  (FT/S)
KEATON BEACH     0900   56     170/  5/  6 1021.5F
CEDAR KEY        0759   56     300/  4/  5 1023.0F
C TOWER          0900   63     240/ 14/ 15 1021.5F
APALACHICOLA BUO 0900   66 67  250/ 12/ 16 1022.5F         2/ 3
PANAMA CITY BUOY NOT AVBL
MOBILE BUOY      0841   66 68  300/ 19/ 21 1023.1F         3/ 4
ORANGE BCH AL BU 0900   62 62  320/ 17/ 19 1021.8R         2/ 3
$$



USA.gov is the U.S. government's official web portal to all federal, state and local government web resources and services.